{"data":{"norad_id":69873,"intl_designator":"2026-156E","name":"FIRESAT2","alt_names":[],"object_type":"PAYLOAD","status":"ACTIVE","operator":null,"country":"US","launch_date":"2026-07-07","launch_site_code":"AFWTR","launch_vehicle":null,"mission":null,"orbit_class":"UNKNOWN","rcs_meters":null,"size_class":null,"mass_kg":null,"dimensions":null,"purposes":[],"wikipedia_slug":null,"has_3d_model":false,"image_url":null,"decayed_at":null,"tle_current":{"epoch":"2026-09-20T03:39:14.173632Z","epoch_age_seconds":51679,"freshness":"FRESH","line1":"1 69873U 26156E   26263.15224738  .00000495  00000+0  57466-4 0  9993","line2":"2 69873  97.7669 162.3352 0004788 264.8139  95.2532 14.89650757 11157","mean_motion":14.89650757,"eccentricity":0.0004788,"inclination_deg":97.7669,"raan_deg":162.3352,"arg_perigee_deg":264.8139,"mean_anomaly_deg":95.2532,"bstar":5.7466e-5,"rev_number":1115,"period_min":96.666953192439,"perigee_km":595.68529965239,"apogee_km":602.36663090795,"semimajor_km":6977.1629652802,"source":"CELESTRAK","updated_at":"2026-09-20T09:00:25.163123Z"}}}